Home   Weather   Nouadhibou   Past weeks
Flag for Mauritania

Past Weather in Nouadhibou, Mauritania — Yesterday and Last 2 Weeks

Now
68 °F

Scattered clouds.


Feels Like: 68 °F
Forecast: 74 / 65 °F
Wind: 14 mph from North

Location: Nouadhibou Airport

Current Time: Oct 20, 2019 at 9:23:17 am

Latest Report: Oct 20, 2019 at 8:00 am


Visibility: 5 mi

Pressure: 29.95 "Hg

Humidity: 83%

Dew Point: 63 °F

Location of NouadhibouLocation

Past Weather in Nouadhibou — Graph

°F

Nouadhibou Temperature Yesterday

Maximum temperature yesterday: 84 °F (at 1:00 pm)
Minimum temperature yesterday: 68 °F (at 6:00 am)
Average temperature yesterday: 73 °F

High & Low Weather Summary for the Past Weeks

 TemperatureHumidityPressure
High97 °F (Oct 7, 2:00 pm)89% (Oct 14, 10:00 pm)30.07 "Hg (Oct 14, 10:00 pm)
Low66 °F (Oct 6, 5:00 am)27% (Oct 7, 2:00 pm)29.80 "Hg (Oct 5, 5:00 pm)
Average77 °F63%29.91 "Hg
* Reported Oct 5 8:00 am — Oct 20 8:00 am, Nouadhibou. Weather by CustomWeather, © 2019

Note: Actual official high and low records may vary slightly from our data, if they occured in-between our weather recording intervals... More about our weather records

Advertising

Nouadhibou Weather History for the Previous 24 Hours

Scroll right to see more
 ConditionsComfort  
Time TempWeatherWind HumidityBarometerVisibility
8:00 am
Sun, Oct 20
68 °FScattered clouds.14 mph83%29.95 "Hg5 mi
7:00 am68 °FPassing clouds.15 mph83%29.92 "Hg5 mi
6:00 am68 °FClear.16 mph83%29.92 "Hg5 mi
5:00 am68 °FClear.17 mph83%29.92 "Hg5 mi
4:00 am68 °FClear.14 mph88%29.92 "Hg5 mi
3:00 am68 °FPassing clouds.16 mph83%29.92 "Hg5 mi
2:00 am68 °FPassing clouds.18 mph88%29.92 "Hg5 mi
1:00 am68 °FClear.18 mph88%29.92 "Hg5 mi
12:00 am68 °FClear.18 mph83%29.95 "Hg5 mi
11:00 pm
Sat, Oct 19
68 °FClear.18 mph83%29.95 "Hg5 mi
10:00 pm68 °FClear.17 mph83%29.95 "Hg10 mi
9:00 pm70 °FClear.15 mph78%29.92 "Hg10 mi
8:00 pm70 °FSandstorm.16 mph78%29.92 "Hg2 mi
7:00 pm72 °FSandstorm.17 mph73%29.89 "Hg2 mi
6:00 pm73 °FSandstorm.21 mph69%29.89 "Hg2 mi
5:00 pm75 °FSandstorm.20 mph61%29.89 "Hg2 mi
4:00 pm77 °FSandstorm.18 mph57%29.89 "Hg2 mi
3:00 pm77 °FClear.18 mph61%29.89 "Hg4 mi
2:00 pm79 °FClear.15 mph58%29.92 "Hg4 mi
1:00 pm84 °FSunny.22 mph40%29.95 "Hg10 mi
12:00 pm81 °FSunny.23 mph51%29.98 "Hg10 mi
11:00 am79 °FSunny.23 mph54%30.01 "Hg10 mi
10:00 am73 °FSunny.21 mph69%30.01 "Hg10 mi
9:00 am72 °FSunny.20 mph73%29.98 "Hg10 mi
Weather by CustomWeather, © 2019

See weather overview